Wind_Speed
10 11 12 13 16 17 18 17 16 14 13 12 10 12 13 15 17 17 18 14 15 7 14 9 7 14 15 8 7 3 1 5 6 6 4 2 3 2 3 9 9 17 7 6 27
13 13 14 18 17 15 14 11 8 12 12 10 9 11 13 17 19 17 8 16 9 10 10 11 6 4 7 6 7 6 3 7 4 3 4 2 1 1 1 4 6 14 12 9 30
13 17 19 18 16 15 13 9 9 12 11 11 10 10 13 16 16 2 5 10 8 6 9 9 5 6 7 9 10 6 6 3 4 11 5 4 3 2 5 3 10 21 24 19 33
16 16 16 15 15 15 13 11 11 12 10 10 8 9 12 11 2 4 4 11 10 6 6 8 7 3 4 6 12 8 9 8 8 11 6 4 3 4 7 5 2 8 21 25 36
15 14 17 17 17 16 14 12 12 12 11 10 9 8 12 7 6 5 10 8 4 7 6 5 5 3 2 3 9 8 13 14 22 16 13 8 9 6 11 14 11 10 19 28 36
13 17 17 18 17 15 14 12 12 12 10 10 9 7 9 6 3 2 6 9 4 5 3 2 2 5 4 4 1 6 13 19 21 23 17 6 5 7 14 10 8 12 19 30 37
15 16 15 15 15 11 9 10 10 12 8 9 7 9 11 19 10 9 10 11 9 6 2 2 6 3 5 3 10 10 10 14 17 24 9 8 15 15 23 12 7 9 20 31 38
14 14 13 12 11 7 5 7 9 9 8 8 7 10 9 12 16 15 14 15 14 14 9 6 5 3 3 10 8 4 5 9 5 13 12 12 33 12 29 25 21 17 19 30 37
11 12 11 10 9 7 5 5 7 8 9 6 7 8 10 8 5 5 2 0 2 5 9 5 6 5 4 3 4 5 12 13 8 14 11 17 26 9 23 23 24 22 23 29 34
9 9 9 9 8 7 7 7 7 7 5 6 7 5 10 3 1 4 4 3 2 0 1 8 5 3 5 5 9 6 8 9 10 3 14 22 22 9 20 20 20 20 22 28 33
8 8 8 8 8 6 7 4 4 2 5 8 7 9 4 7 11 12 10 7 7 6 6 7 6 16 16 17 13 5 7 9 14 4 5 18 22 13 21 10 15 23 24 26 32
7 7 8 9 9 4 8 4 3 8 10 15 18 24 25 24 11 13 11 6 9 8 9 5 20 8 6 7 9 11 13 18 12 8 9 16 18 19 16 22 20 22 23 25 27
6 7 8 9 6 6 7 4 6 15 4 7 3 4 2 6 7 12 12 10 7 11 14 14 8 11 15 14 14 16 16 16 14 11 10 7 19 15 22 32 29 34 32 29 26
6 6 7 8 3 7 3 8 11 7 3 4 3 2 1 2 6 10 15 9 7 8 14 14 20 12 12 17 16 17 18 17 12 4 12 6 10 16 18 21 24 32 32 33 29
6 7 7 7 6 5 5 10 7 2 5 3 1 1 2 5 14 4 16 13 7 9 7 6 7 16 19 17 18 17 10 12 9 16 6 23 7 6 17 20 22 23 35 36 39
5 7 7 7 8 4 6 5 3 5 4 6 2 3 7 6 4 3 6 16 3 9 11 17 3 8 8 17 16 2 12 8 9 5 10 25 8 8 11 24 20 20 35 35 39
5 7 7 8 5 4 5 5 4 3 4 7 3 4 7 4 4 3 4 7 5 4 8 11 22 7 10 8 9 14 7 2 4 7 12 10 11 24 10 6 16 21 33 37 37
5 6 8 7 3 3 1 4 5 3 5 4 5 11 3 3 4 4 4 4 12 7 3 4 7 16 10 12 9 16 12 4 7 5 13 12 10 7 18 13 9 9 23 31 35
5 6 5 4 2 3 1 4 6 6 3 6 7 4 5 4 3 5 3 3 2 5 5 5 7 3 10 6 13 6 10 18 7 2 4 9 9 2 8 8 8 9 8 16 32
4 3 5 7 1 3 3 4 3 4 2 1 3 0 3 6 7 8 3 1 5 6 7 5 8 5 7 7 6 6 10 7 9 2 10 4 5 1 10 10 8 8 13 11 13
3 2 6 5 6 2 3 6 4 5 4 1 2 4 5 4 5 5 3 7 7 7 10 5 5 2 8 7 12 9 6 6 5 8 4 4 1 4 6 7 8 6 13 15 13
3 1 8 7 1 2 1 4 2 3 1 3 3 4 4 4 5 4 5 4 14 18 10 2 4 1 1 3 4 4 10 13 4 6 8 3 2 5 7 6 6 6 15 17 14
3 4 7 8 2 2 3 4 3 2 3 3 3 3 3 4 5 5 4 8 13 10 11 6 3 3 1 2 5 3 4 5 6 5 2 3 3 4 6 8 14 13 22 25 25
4 1 3 7 3 5 3 3 3 4 4 1 4 3 5 3 4 6 6 5 16 12 25 12 2 5 2 2 2 3 2 6 8 3 2 3 8 4 9 11 14 20 27 27 31
6 3 5 2 3 3 3 3 2 2 4 2 1 1 3 3 5 4 4 10 7 10 11 8 4 2 2 5 2 5 1 3 3 1 3 11 8 4 6 9 9 14 25 29 32
5 5 5 3 7 5 2 4 4 2 3 3 3 4 3 3 4 7 10 5 4 7 6 6 4 4 4 7 10 12 15 6 3 3 4 7 5 5 15 15 22 22 22 25 25
15 7 3 3 4 4 4 5 7 3 4 5 2 2 4 5 9 20 19 18 10 6 4 5 6 4 2 4 4 5 14 13 8 11 5 6 6 7 12 14 19 21 23 23 23
Wind_Direction
322 314 316 318 313 309 303 296 295 308 317 313 308 318 317 314 308 312 323 309 288 263 246 257 249 232 235 231 214 177 237 220 208 188 252 275 171 129 246 167 178 184 190 206 178
331 322 321 321 317 316 317 316 323 315 318 316 313 319 317 311 317 323 14 322 278 229 243 238 248 255 225 215 213 187 196 226 220 219 232 237 237 15 252 164 186 183 193 194 179
308 314 316 318 316 316 316 308 306 305 311 315 316 313 315 319 327 94 19 27 46 196 229 216 231 216 227 234 215 209 230 200 272 256 255 235 255 278 135 243 207 204 198 186 181
309 314 318 319 317 315 311 307 300 295 314 317 312 316 307 318 350 136 86 43 41 25 230 221 220 183 242 206 232 254 235 225 245 264 237 229 248 247 194 208 112 239 218 188 186
323 324 321 316 310 306 307 309 310 314 313 310 302 305 305 311 278 228 249 285 340 2 6 231 224 183 227 350 348 270 279 253 247 251 239 242 244 251 246 231 259 274 208 203 200
330 320 316 312 302 288 286 287 293 292 293 296 296 299 289 280 317 38 258 284 316 308 302 279 322 259 293 290 222 347 308 288 262 249 243 214 249 211 248 233 233 231 216 206 204
325 326 329 328 319 300 278 279 280 280 282 284 287 284 275 260 268 270 277 296 300 341 241 215 236 279 11 337 328 278 296 291 256 241 239 219 270 221 237 233 205 225 213 208 204
334 335 338 345 342 332 297 279 276 277 271 270 278 270 263 296 296 285 263 272 268 267 264 240 233 247 236 298 324 240 235 255 238 230 241 194 253 237 241 242 235 226 219 214 210
340 342 349 357 353 349 334 304 285 278 276 273 260 268 274 301 324 11 351 39 356 316 224 226 220 205 181 121 340 252 263 242 319 214 223 206 252 240 241 220 229 215 221 221 216
339 342 351 2 2 356 343 316 294 283 277 238 226 263 256 272 284 64 90 344 337 281 118 198 220 214 182 146 222 232 249 256 233 315 224 233 248 241 215 207 224 220 216 224 220
328 332 349 353 346 350 350 333 338 315 244 223 216 221 252 296 288 273 271 259 235 181 171 204 212 219 194 207 238 288 291 278 257 228 15 262 253 227 241 230 232 233 226 220 228
318 327 343 347 332 348 355 28 20 329 298 281 258 258 258 267 285 270 243 218 194 217 187 196 236 240 205 212 232 242 254 268 285 289 267 267 273 251 227 237 224 228 224 217 228
300 322 339 348 346 349 352 8 332 334 281 298 263 262 304 205 239 273 222 211 218 221 213 220 198 198 207 218 216 224 234 247 250 302 283 259 276 271 235 229 223 230 237 233 224
294 308 333 350 327 349 331 335 329 342 341 288 325 20 312 237 276 267 237 194 214 240 219 246 240 242 197 219 212 236 218 233 238 268 250 73 285 234 228 231 227 225 221 230 225
279 298 327 331 311 310 311 332 346 5 27 298 351 359 331 243 303 217 222 202 237 201 177 224 206 221 220 212 201 235 209 222 215 235 274 267 281 240 206 223 224 225 223 223 227
273 294 313 316 307 293 330 353 345 41 271 339 343 350 345 259 263 286 206 212 243 242 234 244 219 213 221 223 202 114 249 232 232 203 242 243 222 283 218 224 222 221 223 224 227
262 291 306 306 286 303 343 313 28 120 329 318 336 333 320 265 266 240 221 197 225 253 229 242 238 219 207 196 200 202 221 202 212 204 234 219 220 233 249 247 206 217 219 218 222
264 286 292 277 239 326 243 44 77 239 246 304 302 318 297 296 243 237 256 252 221 230 291 255 278 189 182 197 191 194 180 219 192 205 244 215 258 249 231 246 212 239 223 218 221
264 291 282 226 225 287 275 53 206 209 221 331 322 18 317 320 287 299 246 268 245 201 245 269 246 178 188 161 171 180 200 221 314 278 282 181 209 157 17 18 11 4 312 236 222
249 286 229 193 299 153 76 236 211 213 301 290 330 151 302 318 320 329 297 106 328 228 198 276 285 204 147 184 225 161 164 170 213 210 241 84 114 305 345 334 338 343 313 289 263
219 230 195 194 160 196 161 224 265 256 222 255 280 284 265 294 290 300 304 305 8 319 301 248 242 63 128 207 169 188 222 220 151 245 312 123 48 347 303 309 308 328 330 0 323
171 35 184 174 121 59 163 200 305 285 152 238 246 256 267 286 289 282 313 284 331 324 315 229 289 332 310 284 249 180 191 196 175 208 202 223 16 357 336 338 321 3 32 44 31
187 175 174 180 155 247 270 279 252 266 228 196 245 209 295 287 299 284 301 308 318 326 341 344 309 319 39 22 16 72 134 175 231 307 295 87 156 355 6 29 26 37 45 49 51
176 72 166 187 187 144 163 267 279 233 261 295 275 330 311 277 211 300 305 310 322 320 333 337 333 333 79 353 333 273 172 170 196 238 210 129 140 48 24 32 25 27 46 45 53
205 232 175 208 240 161 160 167 244 284 242 246 341 138 280 281 314 273 303 309 303 3 330 350 317 327 21 353 65 18 91 147 173 287 292 152 127 114 50 35 27 29 41 39 40
200 168 159 147 131 123 216 228 197 253 217 255 210 294 202 235 197 296 316 321 321 328 320 338 308 328 355 7 84 50 22 10 53 9 53 105 68 331 53 39 27 22 26 27 24
206 204 189 152 132 117 221 205 189 154 250 256 277 299 249 244 259 273 271 271 272 306 312 317 328 351 320 327 343 23 355 12 57 21 343 44 17 49 59 44 32 17 21 23 27
Height
1519 1518 1517 1515 1514 1512 1510 1509 1508 1507 1507 1505 1505 1504 1503 1501 1499 1498 1498 1498 1497 1498 1499 1501 1503 1504 1506 1507 1510 1510 1516 1517 1510 1507 1505 1500 1498 1500 1502 1501 1502 1503 1505 1507 1513
1518 1517 1515 1514 1512 1510 1508 1507 1506 1506 1505 1505 1504 1503 1501 1499 1498 1496 1498 1495 1492 1495 1497 1500 1501 1503 1505 1506 1507 1507 1512 1511 1504 1502 1501 1501 1499 1497 1501 1500 1501 1500 1503 1505 1510
1518 1516 1514 1512 1511 1509 1507 1506 1505 1505 1504 1504 1503 1502 1501 1499 1498 1496 1496 1494 1491 1493 1496 1499 1501 1505 1505 1504 1504 1501 1504 1503 1502 1502 1500 1499 1499 1497 1496 1500 1496 1495 1497 1502 1507
1517 1515 1512 1511 1509 1508 1507 1505 1504 1504 1503 1502 1502 1502 1500 1500 1502 1497 1496 1496 1495 1496 1496 1498 1501 1504 1504 1504 1502 1504 1500 1500 1500 1500 1499 1498 1497 1496 1494 1494 1495 1496 1497 1499 1504
1515 1513 1511 1509 1507 1506 1505 1504 1503 1503 1502 1501 1501 1501 1500 1500 1497 1497 1495 1495 1497 1496 1497 1498 1500 1502 1502 1502 1501 1499 1499 1498 1497 1496 1496 1495 1495 1495 1491 1491 1492 1493 1493 1495 1500
1514 1512 1508 1507 1505 1503 1503 1503 1502 1502 1501 1501 1500 1500 1500 1501 1495 1495 1495 1495 1496 1498 1498 1499 1501 1502 1503 1502 1504 1503 1502 1496 1494 1493 1493 1493 1493 1494 1488 1489 1487 1489 1489 1491 1495
1512 1509 1507 1504 1502 1500 1501 1501 1501 1500 1500 1500 1500 1499 1498 1494 1494 1493 1494 1494 1496 1497 1499 1500 1501 1503 1504 1503 1501 1499 1500 1492 1485 1490 1492 1494 1491 1481 1486 1487 1484 1488 1488 1490 1493
1510 1509 1505 1502 1502 1500 1499 1499 1499 1498 1498 1499 1500 1499 1494 1491 1491 1491 1491 1493 1494 1495 1498 1499 1500 1502 1504 1503 1502 1501 1497 1491 1483 1489 1492 1497 1468 1477 1482 1484 1481 1482 1486 1489 1490
1508 1508 1505 1501 1502 1501 1500 1498 1497 1496 1496 1497 1498 1498 1493 1490 1490 1490 1490 1491 1492 1493 1495 1498 1499 1501 1502 1506 1510 1502 1491 1489 1488 1482 1489 1488 1464 1474 1479 1478 1479 1477 1481 1485 1488
1509 1507 1505 1502 1501 1502 1500 1497 1496 1495 1495 1495 1496 1500 1492 1490 1490 1490 1491 1492 1493 1494 1496 1498 1498 1498 1499 1505 1507 1502 1500 1493 1488 1484 1483 1480 1471 1474 1474 1474 1475 1476 1475 1481 1483
1510 1507 1504 1502 1502 1501 1501 1498 1499 1497 1494 1491 1491 1488 1488 1489 1489 1489 1490 1491 1492 1493 1495 1496 1497 1485 1493 1491 1490 1497 1499 1497 1484 1483 1490 1476 1471 1474 1473 1471 1471 1472 1472 1474 1478
1510 1508 1504 1502 1502 1501 1500 1499 1500 1501 1492 1486 1485 1486 1486 1487 1487 1485 1488 1490 1488 1488 1491 1493 1481 1487 1490 1493 1495 1497 1499 1495 1489 1483 1487 1478 1471 1467 1467 1466 1467 1469 1469 1468 1472
1509 1507 1505 1502 1502 1501 1500 1500 1499 1498 1495 1484 1483 1483 1484 1485 1482 1479 1483 1484 1485 1485 1486 1484 1475 1473 1484 1488 1490 1490 1495 1490 1492 1488 1483 1484 1462 1461 1457 1456 1458 1459 1461 1462 1463
1509 1506 1504 1502 1505 1502 1500 1498 1497 1495 1496 1489 1485 1484 1484 1484 1482 1477 1478 1482 1482 1479 1481 1477 1474 1475 1478 1480 1489 1488 1477 1482 1487 1494 1488 1479 1456 1447 1453 1449 1449 1450 1453 1454 1457
1506 1505 1503 1501 1503 1501 1501 1498 1496 1495 1517 1488 1487 1486 1485 1487 1481 1475 1475 1477 1474 1474 1476 1465 1468 1468 1469 1466 1477 1471 1477 1482 1486 1487 1489 1479 1490 1443 1441 1440 1435 1437 1443 1446 1447
1504 1503 1502 1503 1502 1501 1499 1497 1497 1507 1519 1494 1486 1486 1486 1481 1479 1475 1474 1475 1472 1470 1467 1462 1463 1464 1458 1462 1467 1469 1478 1478 1481 1484 1483 1460 1483 1445 1433 1416 1420 1426 1431 1437 1440
1500 1500 1501 1502 1502 1500 1499 1499 1510 1513 1499 1495 1493 1489 1487 1482 1477 1474 1470 1468 1466 1466 1460 1456 1451 1454 1456 1460 1465 1469 1477 1499 1483 1472 1458 1442 1461 1444 1417 1414 1411 1414 1419 1423 1432
1498 1499 1499 1501 1501 1500 1500 1501 1526 1524 1513 1495 1490 1487 1483 1478 1473 1469 1467 1462 1462 1463 1457 1451 1435 1442 1443 1444 1451 1460 1466 1463 1459 1455 1434 1445 1450 1428 1414 1412 1409 1410 1413 1418 1422
1497 1497 1498 1500 1501 1500 1501 1523 1514 1514 1500 1497 1490 1494 1492 1479 1478 1469 1464 1460 1461 1462 1458 1444 1434 1429 1434 1438 1445 1456 1461 1453 1459 1445 1442 1426 1430 1411 1414 1412 1413 1412 1414 1413 1414
1495 1496 1497 1499 1500 1501 1502 1506 1507 1498 1497 1496 1496 1493 1489 1481 1476 1468 1461 1457 1457 1457 1456 1447 1432 1426 1430 1440 1442 1445 1446 1457 1459 1450 1421 1406 1417 1424 1421 1419 1419 1417 1416 1409 1404
1494 1496 1497 1499 1500 1502 1511 1512 1500 1494 1496 1498 1498 1494 1487 1484 1476 1469 1461 1456 1456 1452 1449 1444 1436 1428 1432 1431 1430 1441 1446 1440 1440 1444 1423 1411 1432 1429 1431 1427 1425 1419 1417 1400 1401
1493 1497 1496 1498 1501 1503 1509 1501 1498 1495 1494 1496 1496 1493 1488 1484 1477 1471 1464 1464 1458 1454 1445 1440 1434 1423 1424 1427 1429 1425 1426 1432 1439 1427 1429 1424 1443 1433 1431 1427 1426 1422 1414 1410 1411
1491 1494 1496 1496 1507 1507 1501 1499 1496 1494 1493 1492 1491 1492 1490 1484 1479 1473 1468 1460 1458 1454 1447 1438 1429 1425 1425 1424 1422 1422 1422 1421 1424 1432 1416 1416 1441 1432 1428 1428 1425 1420 1414 1413 1413
1491 1497 1494 1494 1494 1497 1503 1501 1497 1492 1492 1491 1490 1488 1487 1483 1482 1475 1469 1460 1457 1454 1449 1440 1437 1428 1428 1426 1427 1423 1424 1424 1426 1420 1424 1421 1430 1431 1430 1429 1426 1425 1418 1421 1416
1488 1487 1488 1498 1494 1494 1495 1496 1495 1497 1491 1488 1488 1489 1489 1490 1486 1477 1469 1464 1457 1456 1449 1445 1438 1436 1434 1432 1431 1429 1427 1426 1425 1427 1417 1421 1424 1431 1432 1433 1435 1434 1425 1423 1421
1483 1484 1487 1488 1488 1492 1494 1496 1493 1491 1490 1488 1488 1486 1486 1487 1485 1483 1477 1470 1464 1457 1452 1447 1440 1437 1432 1434 1434 1433 1436 1430 1429 1430 1427 1429 1433 1434 1438 1438 1434 1432 1431 1430 1428
1478 1480 1482 1488 1488 1493 1492 1487 1486 1489 1487 1487 1486 1487 1483 1480 1478 1475 1474 1471 1468 1463 1456 1449 1446 1445 1434 1435 1429 1436 1447 1444 1446 1446 1439 1434 1442 1440 1442 1442 1440 1438 1437 1434 1434